sat.trackr.live / text

‹ back to catalog

STARLINK-33994

NORAD 63931 · 2025-098F

PAYLOAD ACTIVE UNKNOWN

§ Identity

Operator
Country
US
Launch date
2025-05-13
Launch site
AFWTR
Launch vehicle
Mass (kg)
RCS (m²)

Purposes: comms

External: N2YO · Heavens-Above · Gunter

§ Orbital elements

Epoch: 2026-05-25T03:23:49.109568Z

Period
96.11 min
Inclination
70.0010°
Eccentricity
0.0002556
Mean motion
14.98338288 rev/d
Perigee alt
570.3 km
Apogee alt
573.8 km
Semi-major
6,950.2 km
B*
3.2683e-4
RAAN
81.7181°
Arg perigee
270.3108°
Mean anomaly
89.7758°
Rev number
5,802

§ Raw data

STARLINK-339941 63931U 25098F   26145.14154062  .00003810  00000+0  32683-3 0  99932 63931  70.0010  81.7181 0002556 270.3108  89.7758 14.98338288 58020

JSON: /api/v1/satellites/63931 · /tle

For live sub-satellite position, see the globe view (requires WebGL).

§ Visibility from observer

Set your observer location to see the next 7 days of passes ≥ 10°. The values pass through the URL so the page stays shareable.

No JS? Fill the form by hand. The geolocation button needs JavaScript.